CW1923 Weather Reports


Display with metric or nautical units.
time (UTC)temp
F
wind
direction
speed
MPH
gust
MPH
rain 1hr
in
rain 24hr
in
rain mn
in
humidity
%
barometer
mb
20210805210931 68 212 2.0 9.0 0.00 0.00 0.00 72 1003.3
20210805210430 68 193 2.0 7.0 0.00 0.00 0.00 72 1003.3
20210805205931 68 198 2.0 7.0 0.00 0.00 0.00 72 1003.3
20210805205432 68 201 2.0 7.0 0.00 0.00 0.00 72 1003.3
20210805204930 68 185 2.0 5.0 0.00 0.00 0.00 72 1003.3
20210805204433 69 183 2.0 5.0 0.00 0.00 0.00 72 1003.3
20210805203933 69 190 2.0 7.0 0.00 0.00 0.00 72 1003.3
20210805203431 69 190 2.0 7.0 0.00 0.00 0.00 72 1003.3
20210805202930 69 187 2.0 5.0 0.00 0.00 0.00 72 1003.5
20210805202431 69 180 4.0 5.0 0.00 0.00 0.00 72 1003.5
20210805201932 69 178 4.0 7.0 0.00 0.00 0.00 72 1003.6
20210805201430 69 156 4.0 14.0 0.00 0.00 0.00 72 1003.7
20210805200930 69 143 2.0 14.0 0.00 0.00 0.00 71 1003.7
20210805200430 69 186 0.0 5.0 0.00 0.00 0.00 72 1003.7
20210805195931 69 199 0.0 0.0 0.00 0.00 0.00 72 1003.7
20210805195433 69 199 0.0 0.0 0.00 0.00 0.00 71 1003.8
20210805194934 69 199 0.0 4.0 0.00 0.00 0.00 71 1003.7
20210805194433 70 199 0.0 4.0 0.00 0.00 0.00 71 1003.8
20210805193930 70 174 0.0 0.0 0.00 0.00 0.00 70 1003.8
20210805193433 70 174 0.0 0.0 0.00 0.00 0.00 70 1003.8
20210805192933 71 174 0.0 4.0 0.00 0.00 0.00 70 1003.7
20210805192432 71 171 0.0 4.0 0.00 0.00 0.00 69 1003.8
20210805191934 71 159 0.0 0.0 0.00 0.00 0.00 70 1003.8
20210805191436 71 155 0.0 0.0 0.00 0.00 0.00 69 1003.9
20210805190931 71 155 0.0 0.0 0.00 0.00 0.00 68 1003.9
20210805190432 71 155 0.0 0.0 0.00 0.00 0.00 68 1003.8
20210805185924 72 155 0.0 0.0 0.00 0.00 0.00 67 1003.8
20210805185419 72 155 0.0 0.0 0.00 0.00 0.00 67 1003.8
20210805184905 72 155 0.0 0.0 0.00 0.00 0.00 67 1003.9
20210805184405 72 155 0.0 0.0 0.00 0.00 0.00 65 1003.8
20210805183905 73 155 0.0 0.0 0.00 0.00 0.00 66 1003.8
20210805182905 73 153 2.0 4.0 0.00 0.00 0.00 64 1003.9
20210805182353 73 150 2.0 4.0 0.00 0.00 0.00 64 1003.9
20210805181856 73 151 2.0 7.0 0.00 0.00 0.00 63 1003.9
20210805181350 74 150 2.0 7.0 0.00 0.00 0.00 63 1004.0
20210805180847 74 162 2.0 5.0 0.00 0.00 0.00 63 1004.0
20210805180349 74 161 2.0 5.0 0.00 0.00 0.00 63 1004.0
20210805175848 74 160 2.0 5.0 0.00 0.00 0.00 63 1004.1
20210805175346 74 157 2.0 5.0 0.00 0.00 0.00 64 1004.0
20210805174846 74 158 2.0 5.0 0.00 0.00 0.00 63 1004.1
20210805174347 74 160 2.0 5.0 0.00 0.00 0.00 63 1004.2
20210805173850 74 47 0.0 5.0 0.00 0.00 0.00 63 1004.2
20210805173347 74 177 2.0 4.0 0.00 0.00 0.00 63 1004.2
20210805172847 74 177 0.0 4.0 0.00 0.00 0.00 62 1004.2
20210805172346 74 177 0.0 5.0 0.00 0.00 0.00 63 1004.3
20210805171846 74 176 2.0 5.0 0.00 0.00 0.00 62 1004.3
20210805171345 74 120 2.0 5.0 0.00 0.00 0.00 61 1004.4
20210805170846 75 121 2.0 5.0 0.00 0.00 0.00 60 1004.3
20210805170336 75 142 2.0 7.0 0.00 0.00 0.00 60 1004.3
20210805165839 75 151 2.0 7.0 0.00 0.00 0.00 58 1004.3
20210805165338 75 162 2.0 7.0 0.00 0.00 0.00 58 1004.5
20210805164838 76 153 2.0 7.0 0.00 0.00 0.00 59 1004.5
20210805164337 75 201 4.0 9.0 0.00 0.00 0.00 58 1004.6
20210805163834 75 329 4.0 9.0 0.00 0.00 0.00 58 1004.6
20210805163333 76 164 2.0 9.0 0.00 0.00 0.00 59 1004.8
20210805162835 75 306 2.0 7.0 0.00 0.00 0.00 58 1004.9
20210805162333 75 122 4.0 11.0 0.00 0.00 0.00 58 1004.9
20210805161833 75 215 4.0 11.0 0.00 0.00 0.00 58 1004.8
20210805161331 75 289 4.0 11.0 0.00 0.00 0.00 57 1004.8
20210805160832 75 243 4.0 11.0 0.00 0.00 0.00 58 1004.9
20210805160334 75 109 4.0 7.0 0.00 0.00 0.00 59 1004.9
20210805155830 76 183 4.0 9.0 0.00 0.00 0.00 58 1004.9
20210805155331 76 160 5.0 11.0 0.00 0.00 0.00 57 1005.0
20210805154832 76 163 5.0 11.0 0.00 0.00 0.00 57 1005.0
20210805154330 76 134 4.0 11.0 0.00 0.00 0.00 58 1005.0
20210805153832 76 151 2.0 7.0 0.00 0.00 0.00 58 1005.1
20210805153332 76 199 2.0 7.0 0.00 0.00 0.00 60 1005.0
20210805152831 76 304 2.0 5.0 0.00 0.00 0.00 57 1005.1
20210805152332 76 143 2.0 5.0 0.00 0.00 0.00 59 1005.2
20210805151833 75 316 2.0 5.0 0.00 0.00 0.00 60 1005.3
20210805151332 75 351 2.0 5.0 0.00 0.00 0.00 58 1005.4
20210805150831 75 316 4.0 11.0 0.00 0.00 0.00 58 1005.6
20210805150333 76 178 4.0 11.0 0.00 0.00 0.00 59 1005.6
20210805145834 75 169 2.0 7.0 0.00 0.00 0.00 60 1005.6
20210805145332 76 300 4.0 9.0 0.00 0.00 0.00 59 1005.7
20210805144832 76 165 4.0 11.0 0.00 0.00 0.00 58 1005.7
20210805144330 77 162 4.0 11.0 0.00 0.00 0.00 56 1005.8
20210805143830 77 165 4.0 12.0 0.00 0.00 0.00 58 1005.8
20210805143331 76 194 4.0 12.0 0.00 0.00 0.00 59 1005.9
20210805142832 76 193 4.0 11.0 0.00 0.00 0.00 60 1005.9
20210805142325 75 176 5.0 14.0 0.00 0.00 0.00 60 1005.9
20210805141825 75 304 4.0 14.0 0.00 0.00 0.00 60 1006.0
20210805141324 75 213 4.0 11.0 0.00 0.00 0.00 60 1006.0
20210805140824 74 193 4.0 12.0 0.00 0.00 0.00 62 1006.0
20210805140326 74 201 5.0 12.0 0.00 0.00 0.00 61 1006.1
20210805135825 74 199 4.0 12.0 0.00 0.00 0.00 59 1006.1
20210805135322 74 149 2.0 11.0 0.00 0.00 0.00 60 1006.1
20210805134824 74 218 2.0 7.0 0.00 0.00 0.00 64 1006.2
20210805134304 74 151 4.0 11.0 0.00 0.00 0.00 63 1006.3
20210805133805 74 174 4.0 11.0 0.00 0.00 0.00 65 1006.4
20210805133308 74 137 2.0 11.0 0.00 0.00 0.00 63 1006.5
20210805132808 75 280 2.0 11.0 0.00 0.00 0.00 63 1006.6
20210805132306 74 309 2.0 11.0 0.00 0.00 0.00 66 1006.7
20210805131802 73 275 2.0 9.0 0.00 0.00 0.00 67 1006.8
20210805131302 73 280 4.0 11.0 0.00 0.00 0.00 68 1006.8
20210805130803 73 156 4.0 11.0 0.00 0.00 0.00 66 1006.8
20210805130302 73 189 2.0 7.0 0.00 0.00 0.00 67 1006.8
20210805125805 72 197 2.0 7.0 0.00 0.00 0.00 67 1007.0
20210805125305 72 180 2.0 7.0 0.00 0.00 0.00 68 1007.0
20210805124803 72 179 0.0 5.0 0.00 0.00 0.00 69 1007.0
20210805124305 72 179 2.0 5.0 0.00 0.00 0.00 69 1007.1
20210805123802 72 295 2.0 5.0 0.00 0.00 0.00 68 1007.2
20210805123306 72 210 4.0 7.0 0.00 0.00 0.00 68 1007.2
20210805122802 72 156 2.0 7.0 0.00 0.00 0.00 67 1007.2
20210805122306 72 183 2.0 5.0 0.00 0.00 0.00 68 1007.2
20210805121753 72 187 2.0 7.0 0.00 0.00 0.00 68 1007.3
20210805121252 72 179 2.0 7.0 0.00 0.00 0.00 67 1007.2
20210805120753 72 217 2.0 5.0 0.00 0.00 0.00 67 1007.3
20210805120254 73 56 2.0 7.0 0.00 0.00 0.00 67 1007.4
20210805115752 73 35 2.0 11.0 0.00 0.00 0.00 67 1007.4
20210805115252 72 134 2.0 11.0 0.00 0.00 0.00 66 1007.5
20210805114751 73 175 2.0 7.0 0.00 0.00 0.00 65 1007.6
20210805114250 72 164 4.0 7.0 0.00 0.00 0.00 65 1007.6
20210805113748 72 168 2.0 9.0 0.00 0.00 0.00 65 1007.7
20210805113244 72 201 2.0 9.0 0.00 0.00 0.00 66 1007.7
20210805112745 72 271 2.0 5.0 0.00 0.00 0.00 67 1007.9
20210805112241 72 270 4.0 7.0 0.00 0.00 0.00 68 1007.9
20210805111740 72 326 4.0 7.0 0.00 0.00 0.00 68 1008.0
20210805111240 72 303 2.0 7.0 0.00 0.00 0.00 69 1007.9
20210805110739 72 197 2.0 7.0 0.00 0.00 0.00 69 1008.0
20210805110238 72 253 2.0 7.0 0.00 0.00 0.00 70 1008.0
20210805105742 71 304 2.0 7.0 0.00 0.00 0.00 69 1008.1
20210805105239 71 339 2.0 9.0 0.00 0.00 0.00 71 1008.2
20210805104736 70 266 2.0 9.0 0.00 0.00 0.00 72 1008.2
20210805104237 70 299 2.0 5.0 0.00 0.00 0.00 73 1008.3
20210805103738 70 306 2.0 7.0 0.00 0.00 0.00 73 1008.3
20210805103237 70 314 2.0 7.0 0.00 0.00 0.00 74 1008.3
20210805102734 70 147 2.0 9.0 0.00 0.00 0.00 73 1008.3
20210805102236 70 164 2.0 9.0 0.00 0.00 0.00 72 1008.4
20210805101733 70 206 2.0 7.0 0.00 0.00 0.00 72 1008.3
20210805101234 70 187 4.0 7.0 0.00 0.00 0.00 71 1008.4
20210805100731 70 141 2.0 7.0 0.00 0.00 0.00 70 1008.5
20210805100231 71 130 2.0 5.0 0.00 0.00 0.00 72 1008.4
20210805095730 71 166 2.0 7.0 0.00 0.00 0.00 72 1008.5
20210805095233 71 168 4.0 12.0 0.00 0.00 0.00 70 1008.4
20210805094730 71 180 2.0 12.0 0.00 0.00 0.00 71 1008.5
20210805094231 71 143 2.0 5.0 0.00 0.00 0.00 72 1008.6
20210805093731 71 127 2.0 7.0 0.00 0.00 0.00 72 1008.6
20210805093232 71 159 2.0 7.0 0.00 0.00 0.00 70 1008.7
20210805092730 72 156 2.0 7.0 0.00 0.00 0.00 71 1008.6
20210805092232 71 237 2.0 9.0 0.00 0.00 0.00 73 1008.7
20210805091733 70 210 2.0 9.0 0.00 0.00 0.00 74 1008.8
20210805091232 70 183 2.0 5.0 0.00 0.00 0.00 75 1008.9
20210805090732 70 179 2.0 5.0 0.00 0.00 0.00 75 1008.8
20210805090234 70 180 2.0 7.0 0.00 0.00 0.00 79 1008.8
20210805085730 69 180 2.0 7.0 0.00 0.00 0.00 77 1008.9
20210805085230 69 116 2.0 7.0 0.00 0.00 0.00 80 1009.0
20210805084731 69 330 2.0 7.0 0.00 0.00 0.00 79 1009.1
20210805084229 69 178 2.0 7.0 0.00 0.00 0.00 79 1009.1
20210805083731 69 183 2.0 5.0 0.00 0.00 0.00 78 1009.2
20210805083232 69 175 2.0 7.0 0.00 0.00 0.00 73 1009.1
20210805082717 70 166 2.0 7.0 0.00 0.00 0.00 75 1009.2
20210805082216 69 185 2.0 5.0 0.00 0.00 0.00 79 1009.1
20210805081706 69 110 2.0 5.0 0.00 0.00 0.00 80 1009.1
20210805081207 68 201 2.0 4.0 0.00 0.00 0.00 80 1009.2
20210805080206 67 176 2.0 7.0 0.00 0.00 0.00 82 1009.3
20210805075705 67 265 2.0 7.0 0.00 0.00 0.00 83 1009.2
20210805075204 67 253 2.0 5.0 0.00 0.00 0.00 83 1009.3
20210805074701 67 253 2.0 5.0 0.00 0.00 0.00 82 1009.3
20210805074200 67 155 0.0 4.0 0.00 0.00 0.00 83 1009.4
20210805073652 67 147 0.0 4.0 0.00 0.00 0.00 83 1009.4
20210805073151 66 147 0.0 4.0 0.00 0.00 0.00 86 1009.4
20210805072656 66 147 0.0 4.0 0.00 0.00 0.00 87 1009.3
20210805072146 65 147 0.0 4.0 0.00 0.00 0.00 89 1009.4
20210805071642 65 147 0.0 4.0 0.00 0.00 0.00 91 1009.3
20210805071144 64 141 0.0 0.0 0.00 0.00 0.00 93 1009.4
20210805070640 64 141 0.0 0.0 0.00 0.00 0.00 94 1009.3
20210805070139 63 141 0.0 0.0 0.00 0.00 0.00 95 1009.3
20210805065638 62 141 0.0 0.0 0.00 0.00 0.00 95 1009.4
20210805065132 62 141 0.0 0.0 0.00 0.00 0.00 96 1009.4
20210805064631 62 141 0.0 0.0 0.00 0.00 0.00 96 1009.3
20210805064134 62 141 0.0 0.0 0.00 0.00 0.00 97 1009.3
20210805063633 61 141 0.0 0.0 0.00 0.00 0.00 97 1009.4
20210805063132 61 141 0.0 0.0 0.00 0.00 0.00 97 1009.4
20210805062634 61 141 0.0 0.0 0.00 0.00 0.00 97 1009.4
20210805062135 61 143 0.0 0.0 0.00 0.00 0.00 97 1009.3
20210805061632 60 7 0.0 0.0 0.00 0.00 0.00 97 1009.3
20210805061132 60 7 0.0 0.0 0.00 0.00 0.00 97 1009.3
20210805060621 60 7 0.0 0.0 0.00 0.00 0.00 97 1009.3
20210805060119 60 7 0.0 0.0 0.00 0.00 0.00 97 1009.3
20210805055613 60 7 0.0 0.0 0.00 0.00 0.00 97 1009.3
20210805055107 60 7 0.0 0.0 0.00 0.00 0.00 97 1009.3
20210805054604 60 7 0.0 0.0 0.00 0.00 0.00 97 1009.3
20210805054104 60 7 0.0 0.0 0.00 0.00 0.00 97 1009.3
20210805053605 60 7 0.0 0.0 0.00 0.00 0.00 97 1009.3
20210805053105 60 7 0.0 0.0 0.00 0.00 0.00 97 1009.4
20210805052604 60 7 0.0 0.0 0.00 0.00 0.00 97 1009.4
20210805052106 60 7 0.0 0.0 0.00 0.00 0.00 97 1009.5
20210805051558 60 7 0.0 0.0 0.00 0.00 0.00 97 1009.6
20210805051056 60 7 0.0 0.0 0.00 0.00 0.00 97 1009.7
20210805050540 60 7 0.0 0.0 0.00 0.00 0.00 97 1009.7
20210805050037 60 7 0.0 0.0 0.00 0.00 0.00 97 1009.7
20210805045533 60 7 0.0 0.0 0.00 0.00 0.00 97 1009.8
20210805045031 60 7 0.0 0.0 0.00 0.00 0.00 97 1009.7
20210805044533 60 7 0.0 0.0 0.00 0.00 0.00 97 1009.7
20210805044036 60 7 0.0 0.0 0.00 0.00 0.00 97 1009.7
20210805043530 60 7 0.0 0.0 0.00 0.00 0.00 96 1009.6
20210805043031 60 7 0.0 0.0 0.00 0.00 0.00 97 1009.6
20210805042534 59 7 0.0 0.0 0.00 0.00 0.00 97 1009.6
20210805042031 59 7 0.0 0.0 0.00 0.00 0.00 96 1009.7
20210805041533 59 7 0.0 0.0 0.00 0.00 0.00 96 1009.6
20210805041033 60 7 0.0 0.0 0.00 0.00 0.00 96 1009.6
20210805040531 60 7 0.0 0.0 0.00 0.00 0.00 96 1009.6
20210805040035 60 7 0.0 0.0 0.00 0.00 0.00 96 1009.6
20210805035532 60 7 0.0 0.0 0.00 0.00 0.00 96 1009.6
20210805035030 60 7 0.0 0.0 0.00 0.00 0.00 96 1009.7
20210805034532 60 7 0.0 0.0 0.00 0.00 0.00 96 1009.8
20210805034032 60 7 0.0 0.0 0.00 0.00 0.00 96 1009.8
20210805033532 60 7 0.0 0.0 0.00 0.00 0.00 96 1009.9
20210805033032 60 7 0.0 0.0 0.00 0.00 0.00 96 1010.0
20210805032531 60 7 0.0 0.0 0.00 0.00 0.00 96 1010.0
20210805032034 60 7 0.0 0.0 0.00 0.00 0.00 96 1010.0
20210805031531 60 7 0.0 0.0 0.00 0.00 0.00 96 1010.0
20210805031033 60 7 0.0 0.0 0.00 0.00 0.00 96 1010.1
20210805030506 60 7 0.0 0.0 0.00 0.00 0.00 96 1010.1
20210805030005 60 7 0.0 0.0 0.00 0.00 0.00 96 1010.2
20210805025505 60 7 0.0 0.0 0.00 0.00 0.00 96 1010.2
20210805025004 60 7 0.0 0.0 0.00 0.00 0.00 96 1010.2
20210805024508 60 7 0.0 0.0 0.00 0.00 0.00 96 1010.2
20210805024005 60 7 0.0 0.0 0.00 0.00 0.00 96 1010.3
20210805023505 60 7 0.0 0.0 0.00 0.00 0.00 95 1010.2
20210805023006 60 7 0.0 0.0 0.00 0.00 0.00 95 1010.2
20210805022506 60 7 0.0 0.0 0.00 0.00 0.00 95 1010.3
20210805022004 60 7 0.0 0.0 0.00 0.00 0.00 95 1010.3
20210805021448 60 7 0.0 0.0 0.00 0.00 0.00 95 1010.3
20210805020935 60 7 0.0 0.0 0.00 0.00 0.00 95 1010.3
20210805020432 60 7 0.0 0.0 0.00 0.00 0.00 95 1010.4
20210805015933 60 7 0.0 0.0 0.00 0.00 0.00 95 1010.4
20210805015430 60 7 0.0 0.0 0.00 0.00 0.00 95 1010.5
20210805014932 60 7 0.0 0.0 0.00 0.00 0.00 95 1010.5
20210805014430 60 7 0.0 0.0 0.00 0.00 0.00 95 1010.5
20210805013932 60 7 0.0 0.0 0.00 0.00 0.00 95 1010.5
20210805013433 60 7 0.0 0.0 0.00 0.00 0.00 94 1010.6
20210805012930 60 7 0.0 0.0 0.00 0.00 0.00 94 1010.6
20210805012431 60 7 0.0 0.0 0.00 0.00 0.00 95 1010.6
20210805011932 60 7 0.0 0.0 0.00 0.00 0.00 94 1010.6
20210805011432 60 7 0.0 0.0 0.00 0.00 0.00 94 1010.7
20210805010931 61 7 0.0 0.0 0.00 0.00 0.00 94 1010.8
20210805010431 61 7 0.0 0.0 0.00 0.00 0.00 94 1010.8
20210805005931 61 7 0.0 0.0 0.00 0.00 0.00 94 1010.7
20210805005432 61 7 0.0 0.0 0.00 0.00 0.00 94 1010.8
20210805004928 61 7 0.0 0.0 0.00 0.00 0.00 94 1011.0
20210805004427 61 7 0.0 0.0 0.00 0.00 0.00 94 1011.0
20210805003924 61 7 0.0 0.0 0.00 0.00 0.00 94 1011.0
20210805003406 61 7 0.0 0.0 0.00 0.00 0.00 94 1011.0
20210805002906 61 7 0.0 0.0 0.00 0.00 0.00 94 1011.2
20210805002358 61 7 0.0 0.0 0.00 0.00 0.00 94 1011.1
20210805001853 61 7 0.0 0.0 0.00 0.00 0.00 93 1011.3
20210805001341 61 7 0.0 0.0 0.00 0.00 0.00 93 1011.2
20210805000841 62 7 0.0 0.0 0.00 0.00 0.00 94 1011.3
20210805000346 62 7 0.0 0.0 0.00 0.00 0.00 93 1011.3
20210804235832 62 7 0.0 0.0 0.00 0.00 0.00 93 1011.3
20210804235332 62 7 0.0 0.0 0.00 0.00 0.00 93 1011.3
20210804234831 62 7 0.0 0.0 0.00 0.00 0.00 93 1011.4
20210804234332 62 7 0.0 0.0 0.00 0.00 0.00 93 1011.4
20210804233834 62 7 0.0 0.0 0.00 0.00 0.00 93 1011.4
20210804233321 62 7 0.0 0.0 0.00 0.00 0.00 93 1011.4
20210804232820 62 7 0.0 0.0 0.00 0.00 0.00 92 1011.5
20210804232313 62 7 0.0 0.0 0.00 0.00 0.00 92 1011.6
20210804231811 62 7 0.0 0.0 0.00 0.00 0.00 92 1011.5
20210804231305 62 7 0.0 0.0 0.00 0.00 0.00 92 1011.8
20210804230806 62 8 0.0 0.0 0.00 0.00 0.00 92 1011.6
20210804230301 62 4 0.0 0.0 0.00 0.00 0.00 92 1011.7
20210804225804 62 4 0.0 0.0 0.00 0.00 0.00 92 1011.8
20210804225306 62 4 0.0 0.0 0.00 0.00 0.00 91 1011.8
20210804224746 62 4 0.0 0.0 0.00 0.00 0.00 91 1011.8
20210804224248 62 4 0.0 0.0 0.00 0.00 0.00 91 1011.8
20210804223745 62 4 0.0 0.0 0.00 0.00 0.00 90 1011.8
20210804223233 62 4 0.0 0.0 0.00 0.00 0.00 90 1011.7
20210804222734 63 4 0.0 0.0 0.00 0.00 0.00 90 1011.8
20210804222232 63 4 0.0 0.0 0.00 0.00 0.00 90 1011.7
20210804221736 63 4 0.0 0.0 0.00 0.00 0.00 89 1011.8
20210804221233 63 4 0.0 0.0 0.00 0.00 0.00 89 1011.8
20210804220735 63 4 0.0 0.0 0.00 0.00 0.00 89 1011.8
20210804220231 63 4 0.0 0.0 0.00 0.00 0.00 89 1011.9
20210804215735 63 4 0.0 0.0 0.00 0.00 0.00 89 1011.8
20210804215232 63 4 0.0 0.0 0.00 0.00 0.00 89 1011.9
20210804214733 63 4 0.0 0.0 0.00 0.00 0.00 89 1011.9
20210804214232 64 4 0.0 0.0 0.00 0.00 0.00 88 1011.9
20210804213734 64 4 0.0 0.0 0.00 0.00 0.00 88 1011.9
20210804213231 64 4 0.0 2.0 0.00 0.00 0.00 88 1011.9
20210804212733 64 4 0.0 2.0 0.00 0.00 0.00 88 1012.0
20210804212230 64 281 0.0 0.0 0.00 0.00 0.00 88 1012.0
20210804211722 64 281 0.0 4.0 0.00 0.00 0.00 88 1012.0